Terug naar catalogus

STARLINK-35461

ActiefCommunicatieVLEO
NORAD 66088·PAYLOAD·🇺🇸 United States

Gelanceerd Oct 19, 2025 vanaf Vandenberg Space Force Base

Loading…

Volgende Passages (komende 24 uur)

TLE

VersSource: CelesTrak SupGP

Epoch: Sep 15, 2026, 04:02 UTC

1 66088C 25236C   26258.16854167  .00008286  00000+0  24479-3 0  2587
2 66088  53.1573 302.3336 0001362  96.9372 306.5668 15.34388439    15

Volg STARLINK-35461 in realtime met AllMySat

Download on the App Store